Location: Riverton
(43.0250°N, 108.3790°W)
Time: 09:34:10
(UTC-06:00)

JAS-2 - Visible Passes

Search period start: 27 April 2015 00:00
Search period end: 07 May 2015 00:00
Orbit: 800 x 1321 km, 98.5° (Epoch: 26 April)

Date Brightness Start Highest point End Pass type
(mag) Time Alt. Az. Time Alt. Az. Time Alt. Az.
27 Apr 11.3 04:29:23 10° NNE 04:34:40 29° E 04:39:34 10° SSE visible
28 Apr 9.7 05:18:53 10° NNE 05:25:12 74° ESE 05:30:45 10° S visible
29 Apr 11.4 04:24:39 10° NE 04:29:39 26° E 04:34:20 10° SSE visible
30 Apr 9.8 05:14:04 10° NNE 05:20:13 68° E 05:25:41 10° S visible
01 May 11.5 04:19:56 10° NE 04:24:37 24° E 04:29:05 10° SE visible
02 May 9.8 05:09:14 10° NNE 05:15:13 63° E 05:20:36 10° S visible
03 May 11.6 04:15:14 10° NE 04:19:35 22° E 04:23:48 10° SE visible
04 May 9.9 05:04:23 10° NNE 05:10:13 58° E 05:15:30 10° S visible
05 May 11.6 04:10:31 10° NE 04:14:32 20° E 04:18:29 10° SE visible
06 May 10.1 04:59:33 10° NNE 05:05:13 53° E 05:10:23 10° S visible
